Theta_e
344 343 342 340 339 336 334 333 334 335 337 338 339 339 339 338 337 337 336 335 333 332 332 331 330 330 330 329 328 327 325 319 315 313 311 309 310 311 312 320 323 322 322 321 321 321 321 320 319 318 317 316 317 318 319 322 321 318 316 315 315 314 315 314 314 314 314 314 315 316 316 315 314 313 313 313 312 311 309 309 310 310 311 314 317
344 343 341 340 339 336 334 333 333 335 336 338 339 339 339 339 338 337 337 335 333 332 332 333 332 332 332 329 328 328 325 321 318 317 315 311 309 310 314 318 320 320 321 321 321 321 321 320 319 318 316 316 316 317 319 320 318 315 315 314 314 315 315 314 313 313 313 314 314 315 315 314 314 313 313 312 311 310 309 309 310 310 311 312 312
344 343 340 339 338 336 334 333 334 335 337 338 339 339 339 339 338 337 337 336 334 332 332 333 334 333 333 330 328 328 327 324 322 321 319 316 313 311 313 315 316 317 318 319 320 320 321 320 318 317 316 315 315 316 317 317 315 314 314 314 314 314 314 315 314 313 313 313 313 314 315 314 314 314 313 312 311 310 310 310 309 310 311 311 312
343 341 340 339 336 334 334 334 335 336 337 338 339 339 339 339 338 338 338 337 336 333 331 332 334 334 333 331 329 327 327 325 324 322 321 321 318 315 313 313 314 314 314 316 320 322 320 319 318 317 315 314 315 315 316 315 315 314 314 314 314 314 314 315 314 314 314 313 313 313 314 315 315 315 314 312 312 311 310 310 310 310 311 311 311
342 341 339 337 335 334 334 336 337 338 338 339 339 338 339 339 339 338 338 337 337 335 332 331 333 335 335 333 330 328 326 325 324 324 325 325 325 322 318 317 318 318 316 314 322 331 329 325 319 315 316 314 313 314 315 314 314 314 314 314 314 314 314 315 315 315 315 314 313 313 314 315 315 315 314 313 312 311 310 310 310 311 310 311 311
341 339 338 336 335 336 336 337 339 339 339 339 338 338 339 339 339 338 338 337 337 336 335 332 331 332 335 335 332 329 327 327 327 328 330 330 330 329 326 323 324 324 322 318 321 330 333 331 323 316 315 314 314 313 314 315 315 315 314 315 314 314 314 316 317 317 316 314 314 313 314 314 315 315 314 314 312 311 310 311 310 311 310 310 311
340 338 337 336 334 336 337 338 339 339 339 339 338 338 338 339 339 338 338 337 336 335 335 334 332 331 333 335 334 331 329 329 330 332 332 332 333 334 333 328 327 326 325 325 323 323 327 329 328 327 321 314 315 315 315 316 316 316 315 315 315 315 316 317 318 319 317 314 314 314 314 314 315 315 314 314 313 312 311 311 310 310 310 310 310
340 338 336 335 335 335 335 336 338 340 339 339 338 338 339 339 338 338 338 336 335 333 334 334 333 330 331 334 335 333 330 329 332 334 334 334 335 335 335 331 329 326 324 326 324 320 321 323 325 331 328 318 316 317 318 317 317 318 318 317 317 316 316 317 319 321 319 316 316 315 314 314 314 314 314 315 314 313 312 311 310 309 309 310 310
339 337 336 335 334 334 334 334 337 340 339 338 338 338 338 338 337 337 336 335 333 332 332 333 332 330 330 334 335 334 331 330 333 335 335 336 335 335 336 333 330 326 324 325 322 321 321 320 319 323 325 319 318 319 319 319 320 321 320 321 320 320 317 317 320 322 323 321 319 318 315 313 313 314 313 314 314 313 313 311 310 309 308 309 310
339 337 336 334 334 334 333 332 335 337 338 338 338 338 337 336 335 334 333 332 330 330 331 331 331 329 328 332 335 334 333 333 334 335 335 335 335 335 335 334 331 326 326 326 322 320 320 320 318 317 319 319 320 322 321 322 323 323 324 324 324 324 321 320 323 323 325 325 323 320 316 313 313 313 314 314 314 314 312 311 310 309 309 309 310
338 336 335 334 334 332 331 330 331 333 334 335 335 335 334 333 331 331 330 328 328 328 329 330 329 328 327 331 335 335 334 335 335 335 335 334 333 333 333 332 329 325 325 325 322 321 320 320 319 316 317 320 323 324 324 325 325 326 327 328 327 326 325 324 324 324 325 326 324 322 317 315 314 313 314 314 314 314 313 312 311 309 309 309 310
337 336 335 334 333 331 330 329 328 329 329 329 330 330 330 328 328 327 326 326 327 328 330 330 328 327 329 332 335 335 335 335 335 335 334 334 334 333 332 329 325 324 323 323 322 321 321 319 319 317 316 319 323 324 325 327 328 329 330 330 328 327 328 327 327 325 325 325 324 322 319 317 314 313 313 314 314 314 314 313 311 310 309 308 309
337 336 334 333 331 330 329 329 328 327 327 327 327 326 326 326 326 326 325 327 329 331 331 329 328 330 332 334 335 335 335 335 335 335 335 334 334 332 329 326 325 324 323 323 323 322 322 319 318 317 316 318 323 325 327 330 331 331 331 331 329 327 329 329 327 326 325 326 325 322 320 318 313 313 313 314 314 314 314 313 312 309 309 308 308
336 335 333 332 330 330 329 328 328 327 328 329 328 329 327 326 326 326 327 329 332 332 330 328 330 333 335 334 335 335 335 335 335 334 334 333 331 329 327 326 325 324 324 324 323 322 323 321 318 318 317 317 323 326 329 331 332 333 332 332 330 328 328 329 327 326 326 326 327 324 320 315 313 313 313 314 314 314 314 313 312 310 310 308 308
334 333 331 330 329 330 329 328 327 328 330 332 332 331 328 326 326 327 328 330 331 330 329 329 331 333 333 334 334 334 334 333 333 332 331 330 329 328 326 325 325 325 325 324 324 322 322 322 319 318 318 317 321 328 330 332 333 333 333 332 331 329 328 329 328 327 327 328 328 327 322 316 313 313 313 314 314 314 315 313 312 311 309 308 308
334 331 330 330 330 330 329 328 329 329 331 333 331 329 326 325 325 326 327 327 327 328 329 330 332 332 333 333 333 332 333 332 331 331 330 330 329 327 326 325 326 326 326 324 323 322 321 321 320 318 318 316 318 326 331 332 333 333 333 333 332 330 329 328 329 328 328 329 329 327 324 318 313 313 313 313 314 314 314 314 313 311 309 309 308
333 330 330 329 330 331 330 329 329 329 332 331 329 327 326 325 326 325 326 327 327 329 330 331 332 332 331 332 332 332 331 330 330 330 331 330 328 327 327 327 327 326 325 323 322 321 321 321 321 319 317 316 316 322 330 332 333 334 333 333 332 331 330 328 330 330 328 330 329 326 325 321 316 313 313 313 313 314 314 314 313 312 310 309 309
332 331 330 330 330 331 330 328 328 329 331 330 327 327 326 326 326 326 327 327 329 331 331 332 332 331 331 331 331 331 330 329 330 330 330 328 327 328 329 328 327 325 322 321 321 321 322 321 322 321 317 316 315 317 326 332 333 333 333 333 332 332 331 330 331 330 329 330 328 326 325 324 320 314 312 313 313 313 314 314 313 312 311 309 309
332 332 330 330 331 330 329 328 327 327 329 327 326 326 326 327 326 327 327 327 329 330 330 330 329 329 330 330 329 329 329 330 330 330 329 328 329 329 330 329 325 323 322 321 321 321 322 321 322 323 318 315 316 316 321 328 331 332 333 333 332 332 332 332 331 330 330 329 328 327 326 324 323 318 313 313 313 313 314 314 313 312 311 310 309
332 332 330 331 331 330 328 327 327 327 326 325 326 325 326 327 327 327 327 327 328 328 328 327 327 327 327 327 327 328 330 331 331 330 329 329 330 331 330 327 323 322 322 321 321 321 321 321 322 323 320 316 315 316 318 324 329 331 333 333 332 332 332 332 331 330 330 329 328 329 327 325 324 321 316 313 313 313 313 314 314 313 311 310 309
334 332 330 331 332 331 329 327 327 327 327 327 327 327 327 327 327 327 327 327 327 327 327 327 327 326 326 326 326 328 330 331 332 331 330 331 331 332 330 324 323 322 321 321 321 320 320 321 321 322 321 317 315 317 317 320 326 331 333 333 332 332 332 332 332 331 330 328 329 330 328 327 324 322 318 314 312 313 313 313 313 313 312 310 310
334 332 330 331 331 331 331 328 328 328 329 329 330 329 327 327 327 327 327 327 327 327 327 327 327 327 326 326 327 328 330 331 332 332 332 332 332 332 328 322 322 321 321 321 320 321 321 320 320 320 322 319 315 317 318 319 325 331 332 332 333 332 333 332 331 331 329 328 330 330 329 329 327 323 318 314 313 313 313 313 313 312 312 310 310
334 332 330 330 331 332 332 329 328 329 329 330 331 330 330 328 328 328 328 328 328 329 328 328 328 328 327 327 328 329 330 331 331 332 331 332 332 332 328 323 322 321 321 322 320 321 320 319 318 319 322 320 316 317 320 321 324 330 331 331 333 333 333 332 331 330 328 329 330 330 329 329 327 325 319 314 313 313 312 313 312 312 311 310 310
333 333 332 331 330 331 332 330 329 330 329 330 331 331 331 330 330 330 330 330 330 330 330 330 329 328 328 328 328 328 329 330 331 330 330 330 331 331 329 325 323 321 321 321 320 319 318 317 317 319 322 320 317 319 321 323 324 327 328 330 333 332 332 332 332 330 328 330 330 330 330 329 328 325 319 315 312 313 312 312 312 312 311 310 310
333 333 333 331 330 330 330 330 330 330 331 330 331 331 331 331 331 331 331 331 331 331 331 331 331 330 330 330 329 329 329 330 330 330 329 329 330 330 329 327 324 322 322 321 319 320 321 319 316 317 322 320 319 321 321 323 324 324 326 329 331 331 332 331 331 331 329 330 330 330 330 328 328 324 318 314 313 313 312 312 312 312 311 310 310
334 334 333 332 332 331 330 331 331 331 331 331 331 331 331 331 331 331 331 331 331 331 331 331 331 331 331 331 330 330 330 330 330 329 329 329 329 329 328 328 326 323 322 322 319 321 325 324 319 316 321 322 321 324 323 323 323 324 326 328 329 331 331 329 329 330 330 330 330 331 330 329 328 322 316 314 312 313 312 311 312 311 311 310 309
335 334 333 333 333 332 331 332 332 332 332 332 332 332 332 332 331 332 331 331 332 331 331 331 331 332 331 331 331 331 330 330 330 329 328 329 329 328 328 328 327 324 323 323 320 322 327 327 321 315 320 323 323 325 325 324 324 324 327 327 328 329 329 328 327 329 331 331 331 331 331 330 328 321 315 313 311 312 312 311 311 310 310 309 309
335 334 335 335 335 335 334 335 334 334 334 334 333 333 333 333 333 332 332 332 332 332 332 332 332 332 332 331 331 331 331 330 330 329 328 329 329 328 328 328 328 326 324 325 323 323 328 329 321 315 321 324 323 326 326 326 326 325 326 327 328 328 327 328 328 328 331 332 332 332 331 331 328 322 317 314 311 311 311 311 310 310 310 309 309
335 334 335 335 335 333 334 336 335 335 335 335 335 335 334 335 334 334 334 334 334 334 333 333 333 333 333 332 332 332 331 330 330 329 329 330 330 329 329 329 329 327 325 326 325 324 328 331 324 317 322 325 323 326 326 327 327 325 326 327 327 327 327 327 328 328 329 332 333 332 332 331 328 322 318 316 312 310 310 310 310 309 310 308 308
332 331 330 328 327 325 329 334 335 335 335 335 334 334 335 334 334 333 333 334 334 334 334 333 334 333 333 332 332 333 331 330 330 330 330 330 330 329 329 329 330 328 327 327 327 327 328 331 328 322 324 327 326 326 327 327 327 326 326 326 326 326 326 327 328 328 330 332 333 333 332 331 328 321 317 317 314 312 309 310 309 309 309 308 308
327 326 323 322 322 322 328 332 333 335 334 334 334 334 334 334 333 332 332 332 333 333 332 332 332 332 332 331 332 332 331 330 330 331 330 329 329 328 328 329 330 329 328 329 329 328 328 330 330 327 326 327 327 327 327 327 327 326 325 326 326 326 326 327 328 328 329 331 331 333 332 330 329 324 319 317 316 314 311 309 309 309 308 307 307
324 325 327 330 328 326 329 331 333 334 333 333 333 333 332 332 331 331 331 331 331 331 331 331 331 330 329 330 331 331 331 331 331 331 330 329 328 328 328 329 329 329 329 330 330 330 330 329 330 330 329 328 328 327 327 328 327 327 326 326 326 327 327 327 327 328 328 329 330 331 331 330 329 327 324 320 317 315 313 310 309 308 308 307 307
327 331 333 334 331 329 330 331 332 333 332 332 331 332 330 330 330 330 331 331 330 330 331 331 329 328 329 330 331 331 332 332 331 331 330 329 329 329 328 329 329 329 329 329 330 330 330 330 329 330 330 329 328 327 327 328 328 327 327 327 326 327 327 327 327 327 328 328 329 330 331 330 329 327 326 325 322 318 315 312 309 308 308 307 306
333 335 334 333 332 331 331 331 331 331 331 331 331 331 330 329 329 329 329 330 330 330 330 330 329 329 329 330 331 331 332 332 331 331 330 330 329 328 328 328 329 329 329 329 330 330 330 330 329 329 329 329 329 328 328 328 328 327 327 327 326 326 326 326 327 327 327 328 328 330 331 330 329 328 327 327 326 323 318 314 312 311 310 309 308
335 333 333 333 332 332 332 331 331 331 331 331 331 330 329 328 327 327 328 329 330 330 330 329 329 329 329 329 330 330 331 331 331 331 331 330 330 328 328 328 329 329 329 329 329 330 329 329 329 328 329 329 329 329 329 328 328 327 327 326 326 325 326 326 326 326 326 327 328 330 331 331 330 329 328 328 328 327 323 319 316 314 314 312 311
330 330 334 334 333 333 333 333 331 332 331 330 329 327 326 326 326 327 328 328 329 328 328 329 329 328 328 328 329 330 330 330 330 330 330 330 330 329 329 328 328 329 329 329 329 329 330 329 329 328 327 327 328 329 329 328 328 328 327 326 325 325 325 325 326 326 325 326 327 329 330 330 330 329 329 328 328 328 327 325 320 317 316 315 315
325 329 334 332 333 334 333 333 331 331 330 328 325 324 325 325 326 327 326 327 327 327 327 327 328 328 328 327 328 329 329 329 330 330 329 330 330 329 328 328 329 329 329 329 328 328 329 329 328 327 326 325 326 328 329 328 327 328 326 326 325 325 325 325 325 325 325 325 326 327 328 329 330 330 330 329 328 328 328 327 325 323 321 319 318
328 328 331 331 332 333 333 333 331 330 329 326 322 323 325 325 326 325 324 325 325 326 326 326 327 327 327 328 328 328 328 329 329 329 329 329 330 329 328 328 328 328 328 328 328 328 329 329 328 327 327 327 326 327 328 328 328 327 326 325 325 324 324 325 326 326 325 325 326 326 327 328 329 331 330 329 329 329 328 328 328 327 326 325 324
332 331 332 331 329 330 332 333 332 330 328 326 321 322 325 325 325 324 323 324 324 324 324 324 324 325 325 327 328 328 327 327 327 328 329 329 328 328 328 328 328 328 328 328 328 328 329 329 329 328 328 328 328 328 329 329 328 327 326 325 324 324 323 324 326 327 326 326 327 327 326 327 328 329 330 330 329 329 328 328 328 327 327 327 328
332 331 333 331 325 327 331 333 334 331 329 326 321 322 325 325 324 322 323 324 324 324 323 323 321 320 319 320 322 324 325 325 326 326 326 327 326 326 326 326 327 328 328 328 328 328 329 329 329 329 329 328 329 329 329 329 327 326 326 325 324 322 322 324 326 327 328 327 327 327 327 326 327 328 329 329 329 329 329 329 329 328 329 328 329
330 329 331 331 325 326 331 333 334 332 329 324 320 320 321 321 321 320 321 322 323 322 322 322 320 319 316 311 312 317 319 322 324 325 325 324 324 323 322 322 324 325 326 327 327 328 329 329 329 329 329 328 329 329 329 329 327 326 326 326 324 321 321 324 325 327 327 328 327 327 327 327 327 327 327 327 328 329 329 329 329 329 329 329 330
328 327 327 329 327 328 333 333 333 332 328 322 317 317 318 318 319 318 319 321 322 322 321 320 319 319 315 308 307 309 312 317 321 322 323 322 321 320 319 320 321 323 324 324 325 327 328 328 328 328 328 328 328 329 329 329 328 327 327 327 326 324 323 324 324 324 325 326 327 327 327 327 327 327 326 327 327 328 329 329 330 330 330 330 330
328 326 325 328 329 332 334 333 333 331 325 321 319 318 318 319 318 318 319 320 321 322 322 320 320 320 315 307 306 306 308 313 317 320 321 321 319 319 319 321 322 322 322 323 324 325 326 327 327 328 328 328 328 329 328 329 328 327 327 327 328 327 326 325 324 323 322 323 325 326 326 326 327 326 326 326 325 327 327 328 329 329 330 330 330
328 325 325 329 332 333 334 333 332 327 322 322 323 320 317 317 317 318 320 320 320 322 322 321 320 318 312 307 308 308 308 311 315 319 321 320 319 319 320 321 322 322 321 323 324 324 325 325 326 327 327 327 327 327 327 328 328 328 328 327 328 328 326 325 324 323 322 322 323 325 326 326 326 326 326 325 325 326 326 326 327 328 329 329 329
328 326 328 332 334 333 333 333 329 321 318 320 320 317 314 314 315 317 318 319 319 320 320 318 316 312 309 309 310 310 311 313 315 318 320 320 320 319 319 320 320 321 321 322 323 324 324 324 324 324 325 326 327 327 327 327 327 328 328 327 327 327 326 325 324 324 324 322 322 324 324 325 325 325 325 325 326 326 326 326 327 328 327 327 328
328 329 331 333 334 333 333 332 323 314 315 317 315 313 313 314 313 313 314 314 314 315 315 313 311 308 308 310 312 313 315 316 317 319 320 320 319 319 319 318 318 319 321 321 321 322 322 322 323 324 324 325 326 327 327 327 327 327 328 327 327 326 326 326 325 326 326 324 323 323 323 323 325 325 326 326 326 326 326 326 327 327 327 327 326
329 331 333 334 334 333 334 330 318 312 313 313 312 313 314 315 313 313 313 312 310 310 310 309 308 307 308 310 313 314 315 317 318 319 319 319 319 318 318 317 317 318 319 320 320 320 320 320 320 323 324 325 326 326 327 327 327 327 327 327 327 327 326 326 325 325 325 324 324 324 324 324 324 324 324 324 325 326 325 326 326 326 327 327 326
329 333 334 334 334 333 331 324 314 312 313 312 314 316 316 315 315 315 315 314 310 308 308 307 307 307 308 310 312 313 314 314 315 315 315 317 318 317 316 315 315 315 315 316 317 318 318 317 317 320 323 324 325 325 325 326 326 326 327 327 327 327 327 326 326 325 325 324 325 326 325 326 325 325 323 323 324 325 324 324 325 325 326 326 326
331 334 335 335 334 330 324 316 313 313 312 314 316 318 318 317 316 317 317 316 312 307 307 307 307 307 307 308 310 311 310 309 309 309 309 312 314 314 312 310 309 308 308 309 310 312 312 312 314 318 319 321 324 324 324 324 325 325 326 327 327 326 326 326 326 326 325 324 324 325 325 325 326 325 325 324 324 324 325 324 324 325 325 325 326
334 335 335 335 332 326 320 314 313 313 314 317 320 319 319 318 318 317 318 316 311 307 308 307 307 307 306 306 307 307 307 306 306 306 307 309 310 309 308 306 306 306 305 305 306 306 307 308 310 312 313 316 320 321 322 322 322 324 325 324 325 325 325 325 325 326 326 325 324 324 325 324 323 324 324 324 323 324 325 324 324 325 325 324 324
335 335 334 333 331 327 322 317 313 314 317 320 322 321 320 320 320 319 318 315 309 307 308 308 307 307 306 306 306 306 306 306 306 306 307 307 307 306 306 306 306 306 306 306 306 306 305 306 307 307 309 311 312 312 313 312 314 319 321 322 322 322 322 323 324 325 326 325 324 324 324 323 322 321 321 322 321 322 322 322 322 322 321 321 320
Wind_Speed
25 25 24 23 23 22 21 21 22 22 23 23 23 23 23 22 21 20 19 18 17 16 15 16 16 16 15 15 15 15 15 14 14 13 13 12 12 13 14 14 14 13 12 12 11 11 11 11 11 12 12 13 14 14 13 14 15 14 13 13 14 16 16 17 19 19 18 18 19 19 18 19 18 17 17 17 18 18 18 19 20 19 18 18 17
27 26 25 24 24 23 21 22 22 23 24 24 24 24 23 22 21 20 19 18 17 16 16 16 17 16 15 15 15 15 15 15 14 14 13 12 13 14 14 14 14 13 12 12 11 11 11 11 11 11 12 12 13 13 14 15 15 14 13 13 14 16 17 18 18 18 17 18 19 18 18 17 17 17 17 17 18 18 18 19 19 19 18 18 18
27 27 25 24 24 22 21 21 22 23 24 25 25 25 24 22 21 20 19 18 18 17 16 17 17 17 16 15 15 15 15 15 14 13 12 12 12 13 14 14 14 13 12 12 11 10 11 11 10 11 11 12 13 14 15 15 15 14 13 13 14 15 16 17 17 17 16 17 18 18 16 15 15 15 16 17 18 18 19 19 18 18 17 18 18
27 27 25 24 23 20 19 19 20 23 24 25 26 25 24 22 21 20 19 18 18 17 17 16 17 17 16 15 15 15 15 14 13 12 12 11 11 12 13 13 13 12 11 11 12 11 10 11 11 11 11 12 13 14 15 15 15 14 14 13 14 14 15 17 16 16 15 16 17 17 16 15 14 14 14 16 17 17 18 18 17 17 17 17 17
28 27 26 25 22 18 18 18 20 23 25 26 26 25 24 23 21 20 19 18 17 17 17 17 17 17 17 16 15 15 14 14 13 11 11 12 11 12 13 12 12 12 11 10 12 12 11 11 12 12 12 13 14 15 15 15 15 14 14 13 13 13 14 16 16 15 15 16 17 17 17 16 14 13 14 15 16 17 17 17 16 16 17 17 17
29 28 27 25 22 17 17 17 20 22 24 25 25 24 23 22 21 19 18 17 17 16 16 16 16 16 16 16 15 14 14 13 12 12 12 13 13 12 12 11 11 11 11 10 11 13 12 11 12 13 12 13 14 15 16 16 16 15 14 13 13 12 13 15 15 15 15 16 18 17 17 15 14 13 13 14 15 16 16 16 16 16 16 17 18
29 28 27 26 23 19 17 17 19 22 23 24 24 23 22 21 20 18 17 16 15 15 15 15 15 15 15 16 16 15 14 13 12 12 14 14 15 14 12 11 10 10 10 10 10 12 12 11 12 12 12 14 15 16 17 17 16 15 14 13 12 11 13 16 16 15 16 16 17 17 16 15 14 13 13 13 14 14 15 15 15 15 16 17 18
30 29 27 26 24 22 20 18 18 21 22 23 22 22 21 19 18 17 16 15 14 14 14 14 15 15 15 16 17 16 15 13 13 14 15 15 15 14 13 12 9 9 10 10 10 11 12 12 12 11 11 14 16 17 18 18 17 15 14 12 11 11 11 15 17 15 16 16 16 16 15 14 13 13 12 12 12 13 14 14 15 15 15 16 18
30 29 28 26 24 22 21 20 19 19 20 21 21 20 19 18 17 16 15 14 13 13 13 13 14 15 15 16 17 16 15 15 14 14 15 14 13 12 12 11 9 8 9 9 10 11 12 12 12 12 13 16 18 18 18 17 16 15 13 12 10 9 9 13 17 15 15 15 15 14 13 13 12 11 10 10 11 11 12 13 14 14 15 16 17
30 28 27 25 24 22 21 20 19 19 18 19 20 19 18 18 17 16 15 14 13 13 13 13 14 14 15 16 17 16 15 15 14 14 14 13 12 11 11 9 7 6 7 9 10 10 10 11 11 11 14 17 18 19 18 17 16 14 13 11 10 9 8 11 15 13 12 13 14 13 12 11 10 10 9 9 9 10 10 11 12 13 14 15 16
30 29 27 25 24 22 21 20 19 18 18 18 18 18 18 17 17 16 15 15 14 14 14 14 14 14 15 16 16 15 15 15 14 13 13 12 11 10 9 7 5 5 7 9 9 9 9 10 11 10 13 17 19 19 18 17 15 14 12 11 10 9 8 10 12 12 11 11 12 12 11 10 9 9 9 8 8 9 9 10 11 12 13 14 15
30 29 27 25 23 22 21 20 19 18 18 18 18 18 18 18 17 16 16 15 15 15 14 14 14 15 15 16 15 15 15 14 13 12 12 12 10 9 7 6 5 5 7 8 8 9 9 9 10 10 11 16 19 18 18 17 15 14 12 11 10 9 8 9 10 11 10 10 12 12 10 9 8 8 8 7 7 8 8 9 10 11 12 13 13
31 29 28 24 23 21 19 19 19 18 17 18 18 18 18 18 17 16 16 16 16 15 15 14 15 15 15 16 16 16 15 14 13 12 12 11 9 8 7 5 5 6 7 8 8 8 9 9 10 10 10 14 18 18 18 17 15 14 12 11 10 9 9 9 9 10 9 9 11 11 9 8 8 7 7 7 6 7 7 7 9 10 10 11 12
31 29 26 24 22 20 17 17 18 18 17 18 18 18 18 18 17 17 17 17 16 15 15 15 15 15 15 15 15 16 15 14 13 12 11 10 9 7 7 6 6 6 7 8 7 8 8 8 9 10 11 13 17 18 18 17 15 14 12 10 9 8 9 8 8 8 7 9 10 10 9 8 7 6 5 5 5 5 6 7 7 8 9 10 11
29 27 25 24 22 20 17 17 17 18 18 17 17 18 18 18 18 18 18 17 16 15 15 15 16 15 15 15 15 15 15 14 13 11 10 9 8 8 8 7 6 6 7 7 6 7 7 7 8 10 11 13 17 19 18 18 16 14 12 11 9 8 8 7 7 7 6 8 9 8 8 8 7 5 4 4 4 4 5 6 6 7 8 8 10
28 26 25 25 23 21 19 17 18 18 18 18 18 18 18 18 18 17 17 16 15 15 16 16 16 15 15 15 15 14 14 12 11 10 9 8 8 8 8 7 6 6 6 6 5 5 6 6 7 8 11 13 16 20 20 19 17 15 13 11 10 8 6 7 6 6 6 7 7 8 8 7 6 5 3 3 3 3 3 5 6 6 7 7 8
28 28 28 27 25 22 20 19 19 18 18 18 18 18 18 18 17 17 17 16 16 17 16 16 15 15 15 15 14 13 12 11 10 9 8 8 8 8 7 6 5 5 4 4 4 4 4 4 5 7 9 11 15 19 21 20 18 16 14 12 10 8 5 5 5 5 6 7 7 8 7 6 5 4 2 2 2 1 1 3 4 5 6 7 7
27 28 28 27 24 21 21 21 20 19 19 18 18 18 17 17 17 16 16 16 17 17 16 16 15 15 15 14 13 12 11 10 9 9 9 9 8 7 6 5 5 5 4 4 3 3 3 3 4 5 7 10 13 18 22 21 19 17 15 12 10 8 6 5 6 5 5 7 8 8 7 5 3 2 2 2 1 1 1 2 3 4 5 6 6
27 27 26 25 23 21 21 21 20 20 19 18 18 18 17 17 16 15 15 15 15 15 15 15 15 14 14 14 13 12 10 10 9 9 9 8 7 6 5 5 5 5 4 3 2 2 2 3 3 4 5 8 10 15 20 22 19 17 14 12 11 8 7 7 7 6 6 7 8 8 7 5 3 1 1 2 2 2 2 2 2 2 3 4 5
28 27 25 23 21 20 21 20 20 19 18 18 18 18 17 16 15 14 14 14 14 13 13 13 13 13 13 13 12 12 10 10 10 9 8 7 6 5 5 5 5 5 4 3 2 1 1 2 3 4 5 6 9 12 17 21 19 17 14 11 11 8 7 8 7 6 6 7 7 7 7 6 3 1 1 2 3 2 2 2 2 2 2 3 4
27 27 25 21 19 19 20 20 19 18 17 18 18 18 16 15 14 13 13 13 12 12 12 11 11 11 11 11 11 11 10 9 9 9 8 6 5 5 5 5 4 4 3 3 2 2 1 2 2 3 5 6 9 11 14 19 18 16 14 11 11 9 7 8 8 7 6 6 6 6 5 5 4 1 1 3 3 3 2 3 3 3 3 2 3
26 27 23 20 18 18 18 19 19 18 17 17 18 17 15 14 13 13 12 12 12 12 11 11 10 10 9 9 9 9 8 7 7 7 7 6 6 5 5 4 4 3 2 2 1 2 1 1 2 3 5 5 9 12 13 17 19 17 14 11 11 9 6 6 6 6 6 6 5 4 3 4 3 2 1 3 4 4 4 4 4 4 4 4 3
28 28 23 20 19 17 16 17 18 17 17 16 16 16 14 13 12 12 11 11 11 10 10 9 9 9 8 8 7 7 6 6 6 6 6 6 7 7 6 4 4 3 1 1 2 3 2 2 3 4 5 6 9 13 14 15 17 17 14 12 11 9 6 5 4 6 7 5 4 3 1 2 3 2 2 3 4 5 5 5 5 5 5 5 4
30 29 24 22 20 18 16 16 17 17 16 15 14 14 14 13 11 11 10 9 8 8 9 8 8 8 8 8 7 7 6 6 6 5 5 6 7 7 6 5 4 3 2 2 3 4 4 4 4 5 7 7 10 13 14 13 15 15 14 12 11 10 7 4 4 5 7 5 4 2 0 1 2 2 2 3 4 6 6 5 6 6 5 5 5
27 26 23 23 21 19 18 17 17 17 16 14 13 12 12 12 11 11 9 8 8 8 8 7 7 7 7 7 7 8 8 8 7 6 6 7 7 7 6 6 5 5 4 4 4 4 4 5 5 7 8 9 11 13 14 13 14 14 14 13 11 11 9 6 4 4 6 6 4 2 1 2 2 1 1 3 4 6 7 6 7 7 6 6 6
26 24 24 23 21 21 20 19 18 16 15 13 12 11 11 11 11 11 10 10 9 9 8 8 7 7 7 7 8 8 9 9 8 7 7 7 7 8 8 8 7 7 6 5 5 4 4 5 5 8 11 11 13 13 13 14 14 15 14 13 11 12 11 7 5 5 5 5 4 2 2 2 2 2 1 3 5 6 7 6 7 9 8 7 7
28 25 24 24 21 21 20 19 17 16 14 13 12 12 11 12 12 12 12 11 10 10 9 9 8 8 8 8 8 8 9 10 9 8 8 8 8 8 8 9 9 8 7 6 5 4 4 4 4 8 12 13 14 13 12 13 14 15 14 13 11 12 12 9 7 6 6 4 4 2 1 1 2 2 1 3 4 6 7 7 8 9 9 8 7
26 24 23 22 20 20 20 18 16 16 14 13 13 12 12 12 13 13 12 12 11 10 10 10 10 10 9 9 10 9 9 11 11 10 9 9 9 9 8 9 10 9 8 6 6 5 4 4 4 8 12 13 14 13 11 11 11 13 13 12 11 10 10 9 7 7 6 4 3 2 1 1 1 2 1 2 3 5 7 7 8 9 9 9 8
22 23 22 20 19 17 18 18 16 15 14 14 14 12 12 13 13 12 12 12 11 10 11 11 12 12 11 10 10 10 10 11 11 10 9 8 9 10 8 9 11 10 9 7 5 5 5 5 4 8 11 13 14 13 11 10 10 11 11 10 9 8 9 9 7 7 7 5 4 3 2 1 0 1 1 1 2 4 5 6 8 9 9 9 9
20 22 22 20 17 15 17 17 16 15 15 15 13 12 12 12 12 12 12 12 11 11 11 11 12 12 11 11 11 11 10 10 11 10 10 9 10 10 9 10 11 10 9 7 6 6 7 6 5 9 11 12 13 12 11 10 10 10 10 10 9 8 8 8 7 6 6 4 4 4 3 2 1 0 1 1 1 3 5 5 6 8 9 9 9
23 25 26 23 17 16 18 16 16 16 15 14 12 12 11 11 12 11 12 12 11 11 10 10 10 10 10 10 10 11 11 11 11 11 10 10 9 9 9 10 11 10 9 8 7 7 8 7 7 9 11 11 11 11 11 10 9 9 10 10 9 8 8 7 6 5 6 4 3 3 3 3 2 1 0 1 1 1 3 5 6 6 8 9 9
28 27 27 25 21 19 17 16 16 15 14 12 11 11 10 10 11 11 11 11 11 10 10 9 9 8 9 9 9 10 12 12 11 11 11 10 8 8 8 9 10 11 10 9 8 8 8 8 9 9 9 11 12 11 11 9 9 9 10 10 10 9 8 7 6 5 5 5 4 3 3 3 2 2 1 1 1 1 2 4 5 5 6 7 8
28 25 23 22 21 18 16 15 14 13 11 10 9 10 9 10 9 9 9 9 10 9 10 9 8 8 8 8 8 9 11 11 11 10 10 9 8 7 8 8 9 10 10 9 9 8 8 8 8 9 9 10 11 12 12 10 9 9 10 10 11 11 11 10 8 6 5 5 4 5 5 3 2 2 1 1 1 1 1 2 4 4 4 4 6
26 24 22 21 18 16 15 14 13 11 11 10 9 9 8 8 8 8 8 8 8 8 9 8 7 7 6 7 8 9 10 10 9 8 9 9 8 8 7 7 8 9 10 10 9 8 8 8 8 9 10 10 10 11 12 12 11 10 11 11 10 10 11 13 12 9 7 6 6 6 7 5 3 2 1 2 1 1 0 0 2 3 2 2 3
25 22 21 20 18 17 15 14 13 12 12 10 9 8 8 7 7 7 7 7 7 8 8 7 6 5 5 6 7 8 9 9 8 7 8 9 9 8 7 7 7 9 10 10 9 9 9 9 8 9 10 10 10 11 12 14 14 12 11 11 11 9 10 12 14 13 11 9 8 7 8 6 5 4 2 1 2 2 1 1 1 1 1 2 2
23 21 22 20 19 19 16 14 13 13 13 11 9 9 8 7 7 7 6 7 8 8 7 6 6 5 5 5 5 6 7 8 8 7 8 9 9 9 8 8 8 8 9 10 10 11 11 11 10 9 9 9 11 12 12 14 15 14 12 12 11 10 10 11 12 13 13 12 11 10 9 8 7 6 5 3 2 2 1 2 2 1 1 1 2
23 23 22 21 21 20 17 15 13 13 12 11 10 9 8 7 7 7 6 7 8 8 7 6 5 5 5 5 5 6 6 7 7 7 7 8 9 9 9 9 9 10 10 11 12 12 12 12 11 10 10 9 11 12 12 13 15 15 13 12 12 12 11 11 11 11 12 12 12 12 11 11 10 9 8 6 4 2 2 2 3 2 2 1 1
25 24 23 23 22 19 17 15 13 13 12 10 9 9 9 9 9 8 8 8 8 8 8 7 6 5 5 4 4 5 5 5 6 7 7 8 9 9 10 11 11 11 11 12 12 13 13 13 12 11 10 10 10 11 11 13 15 15 14 13 12 12 11 11 11 11 11 11 12 13 12 12 12 12 11 9 7 5 3 3 4 3 3 2 1
26 26 27 25 21 18 17 15 13 12 11 10 10 10 11 11 10 10 10 9 9 9 7 6 5 4 3 2 3 2 1 2 3 5 7 8 8 7 8 9 10 11 12 13 13 13 13 13 13 12 11 11 11 11 12 13 14 15 15 14 13 12 12 11 11 11 11 12 12 13 13 13 13 13 12 11 10 8 6 5 4 4 4 4 3
26 28 29 25 21 19 18 16 14 12 12 13 13 13 13 12 12 11 10 9 8 8 6 5 4 3 1 1 2 2 1 1 2 4 6 6 5 4 4 4 6 7 9 11 12 13 13 13 13 13 13 12 11 11 12 14 14 13 14 14 14 13 13 13 12 11 11 12 12 12 13 13 13 13 13 12 12 10 9 8 6 5 5 5 4
28 27 27 26 24 20 19 18 16 15 15 16 15 14 14 13 12 11 10 9 8 6 4 4 3 2 1 1 2 4 4 3 3 4 5 4 4 3 2 2 3 4 5 7 9 11 12 13 13 14 14 13 11 11 13 15 15 14 13 12 12 12 12 13 13 12 12 12 12 12 11 11 12 13 12 13 14 14 12 10 9 7 6 6 5
30 27 25 25 24 21 20 19 17 18 17 16 15 14 13 12 11 11 10 9 6 4 3 2 1 1 3 3 1 3 5 5 5 4 4 3 2 1 1 2 3 4 5 6 7 9 10 12 13 13 13 11 10 10 12 14 16 15 13 11 9 10 12 13 13 13 13 14 14 13 12 11 12 13 12 11 13 16 16 14 12 11 9 8 8
30 27 24 25 24 22 21 19 18 18 18 17 15 14 14 12 10 9 9 7 6 5 3 2 1 2 4 2 1 2 3 4 3 4 4 3 2 0 0 1 3 3 4 4 5 5 7 9 10 11 10 9 9 9 10 13 15 14 12 11 10 8 9 11 13 14 15 16 16 14 13 13 14 13 12 10 9 12 14 14 14 13 12 11 10
28 27 25 25 24 22 22 20 18 18 18 17 16 15 14 11 9 8 7 6 6 6 4 3 3 3 3 2 3 2 1 2 2 2 3 2 2 0 1 1 2 2 2 2 2 2 3 5 6 8 9 9 10 10 9 11 14 13 11 10 9 7 6 7 9 11 13 15 16 15 14 15 15 14 14 13 11 11 11 12 14 13 12 11 11
29 28 27 26 24 23 22 20 18 18 19 18 17 16 14 12 11 10 9 8 7 7 6 5 4 4 4 5 4 3 2 2 2 2 2 2 2 1 1 2 1 2 1 1 1 1 1 1 3 4 7 9 9 9 8 9 11 12 11 9 7 7 6 5 6 7 8 11 14 14 13 13 14 14 14 15 14 12 11 11 13 13 12 11 11
30 29 27 26 24 22 22 21 19 19 19 18 17 15 14 13 11 9 8 8 7 6 6 5 4 4 6 6 4 4 3 2 2 3 3 3 3 3 2 2 1 1 1 1 2 1 1 1 2 3 3 4 6 7 7 6 9 11 12 11 9 7 6 5 5 5 5 7 10 11 11 10 10 11 12 12 12 12 11 11 12 13 12 11 11
31 30 28 26 25 25 24 23 21 20 20 19 18 16 15 13 9 6 5 4 5 5 5 5 5 5 5 6 5 4 3 3 3 4 5 4 4 4 3 3 2 2 2 3 3 3 3 3 3 3 3 2 2 4 4 5 8 10 11 12 12 9 6 5 5 5 3 4 6 8 8 8 8 9 10 9 9 11 11 12 13 12 11 11 12
32 31 30 29 28 26 25 23 22 21 21 20 19 17 16 12 9 8 5 4 5 5 6 6 5 4 4 5 5 4 4 4 5 6 6 5 4 4 4 4 3 3 4 5 6 6 7 6 3 2 2 2 1 0 1 3 6 8 9 10 11 11 9 7 6 6 5 3 4 5 4 4 4 6 7 7 7 8 11 15 15 13 12 11 11
32 31 31 30 28 25 25 23 22 22 22 21 20 18 15 12 9 9 8 7 7 8 8 7 5 4 4 4 4 4 4 4 4 4 4 4 3 3 2 3 3 3 2 2 4 5 6 5 2 1 1 1 2 3 3 2 1 2 5 8 9 10 10 9 7 7 6 4 4 5 4 3 4 4 5 6 5 5 7 10 11 12 13 13 13
32 31 31 30 26 24 24 23 22 22 22 22 21 18 16 13 12 11 11 10 11 11 10 8 6 5 4 4 4 4 4 4 3 2 2 2 2 2 3 4 5 6 6 6 5 4 3 3 2 1 1 1 1 1 2 2 2 1 1 3 5 5 5 6 7 7 6 4 3 4 5 6 6 4 4 5 5 4 4 5 6 9 10 11 12
31 33 33 31 27 24 22 21 21 22 23 23 22 19 17 16 14 12 12 11 12 13 12 9 7 6 5 5 5 6 5 5 4 5 6 6 5 5 5 5 4 5 6 7 8 8 7 6 5 4 4 4 3 2 1 1 1 1 1 1 2 2 3 2 1 3 4 4 2 3 4 6 6 5 4 4 4 3 4 5 6 7 8 9 9
Wind_Direction
172 171 171 171 172 173 174 175 176 177 176 174 173 170 166 161 155 149 145 142 139 135 133 135 137 138 140 141 140 140 137 134 133 132 134 138 145 150 150 146 141 138 137 133 131 128 125 123 125 130 130 131 130 127 126 129 132 130 124 118 109 105 102 98 94 90 84 83 80 79 80 80 83 82 80 81 80 79 79 77 77 77 78 80 78
169 169 170 171 171 173 176 178 179 179 177 175 173 171 167 162 156 150 146 144 141 137 135 136 139 139 141 142 142 142 141 139 138 139 141 141 141 144 145 141 136 134 135 132 131 130 126 124 124 127 127 130 131 130 133 135 136 134 130 122 112 109 105 100 98 94 88 85 81 77 75 75 78 81 82 84 84 83 82 79 77 76 77 78 76
167 166 168 170 171 173 177 179 180 179 177 175 173 172 168 163 159 154 149 146 143 140 138 138 141 142 142 144 145 144 144 144 143 144 145 146 141 138 137 133 130 129 131 130 131 130 127 126 125 125 127 130 132 135 138 139 138 138 136 127 119 117 111 102 100 96 90 86 83 80 75 74 75 79 83 85 85 84 83 81 79 78 78 78 76
166 164 167 168 171 174 177 178 178 177 174 173 172 171 168 165 162 158 152 148 146 143 142 140 142 144 145 145 147 147 147 147 146 147 148 150 146 137 131 124 121 123 128 130 129 128 128 128 127 127 130 132 134 138 141 141 140 142 140 132 128 125 117 107 102 97 90 86 83 80 75 73 74 76 79 83 84 84 84 84 83 82 81 80 78
164 162 166 167 168 171 174 174 173 173 172 171 171 171 169 167 164 160 155 151 149 148 147 143 143 145 147 147 147 148 147 147 146 145 143 142 139 134 127 118 111 112 117 126 125 120 122 123 126 130 134 136 137 141 143 141 141 143 143 140 138 135 127 114 106 98 90 87 83 79 74 71 72 73 75 79 83 85 86 87 87 85 82 80 78
162 162 165 165 164 166 170 169 169 170 171 171 171 171 169 167 165 162 158 154 152 150 150 148 145 145 148 149 148 148 146 147 145 141 136 132 129 126 123 118 108 100 100 113 124 123 124 121 121 125 133 138 140 144 144 141 144 147 148 149 147 144 135 122 113 103 93 89 83 78 75 70 68 71 73 76 81 84 86 89 89 87 83 80 79
161 162 163 163 162 161 165 166 169 171 172 172 172 172 170 167 165 163 160 157 155 153 152 151 149 147 149 151 151 148 148 148 145 141 136 132 129 127 127 127 113 95 90 97 111 119 122 118 118 120 128 137 141 144 145 146 149 151 152 153 152 153 143 128 122 109 98 92 86 80 76 72 69 68 69 72 79 84 86 88 90 88 85 82 80
160 161 161 162 162 159 163 169 171 173 174 173 173 173 171 169 167 165 162 160 159 158 156 154 151 149 149 153 154 151 151 149 147 143 139 137 133 132 133 134 123 98 89 86 86 98 105 104 112 122 129 138 144 146 148 152 153 153 152 154 157 162 155 134 127 116 102 97 90 84 78 75 71 68 65 64 71 81 86 87 89 89 86 83 81
161 160 160 161 162 159 162 170 173 176 177 175 174 174 174 172 171 168 165 165 163 162 160 157 154 151 150 154 157 154 153 153 150 148 146 142 137 136 134 133 127 101 90 86 81 89 98 96 103 122 133 141 148 149 153 155 154 154 152 156 157 160 165 134 125 120 107 100 93 84 79 79 76 73 68 63 66 75 84 88 89 87 85 83 82
160 157 158 162 162 160 163 169 173 179 181 180 178 177 177 175 174 171 168 167 167 166 164 161 156 153 153 156 159 157 155 157 155 154 154 149 143 139 135 132 122 94 94 99 92 92 99 100 102 121 137 144 150 153 155 156 154 154 153 156 156 162 166 127 119 122 111 103 94 83 80 82 80 77 73 70 68 72 81 88 88 86 87 85 83
157 155 158 162 161 161 164 168 175 181 184 184 183 180 179 178 174 171 169 169 169 169 166 162 158 156 155 157 161 159 157 158 157 158 158 153 145 140 136 132 120 95 101 105 100 97 101 106 108 118 140 148 153 157 157 157 155 155 156 157 165 174 156 120 120 123 114 105 94 86 84 83 81 83 79 76 74 73 79 86 91 89 88 86 84
156 156 159 163 161 160 164 168 176 181 184 184 182 181 178 176 173 170 168 168 168 167 164 160 158 156 154 156 160 159 157 157 158 158 157 153 146 143 141 135 126 116 110 107 103 98 97 105 115 121 140 153 158 161 160 158 157 157 160 163 178 180 143 125 128 120 114 105 92 88 86 83 86 89 86 84 82 78 76 83 94 92 88 89 87
156 157 159 162 158 158 165 167 173 178 181 179 177 175 172 170 167 166 165 165 166 162 159 157 155 154 152 152 155 155 155 156 157 156 157 156 152 151 147 141 136 126 117 113 108 97 93 97 113 128 139 156 163 165 162 159 157 158 163 170 188 183 144 136 131 118 116 105 92 90 87 89 96 95 94 93 88 81 77 79 89 91 89 90 89
156 157 157 158 155 157 165 168 169 171 173 171 170 166 163 163 161 161 163 164 164 160 157 153 151 152 153 152 153 153 154 154 153 154 156 158 156 153 148 146 141 128 118 115 112 99 97 93 105 130 140 156 167 168 164 161 159 159 166 175 197 190 151 143 132 123 118 106 96 93 90 92 101 101 103 104 100 92 83 77 83 92 91 88 87
154 154 157 157 154 156 165 167 164 165 168 164 161 157 154 153 152 156 160 164 163 157 152 149 151 154 156 155 155 154 154 154 153 155 155 158 156 152 150 147 140 127 120 116 114 103 100 99 102 124 140 155 168 172 168 164 162 162 171 178 202 205 164 147 134 128 116 102 96 92 91 90 97 104 104 106 108 108 99 90 88 94 92 86 87
155 157 159 159 156 158 163 162 160 162 164 159 155 149 145 144 146 152 156 160 155 148 146 148 153 155 158 158 158 156 155 157 156 159 159 161 157 152 149 144 137 125 122 120 118 109 105 108 105 120 138 153 168 175 173 169 167 166 172 181 202 213 182 154 134 126 113 95 84 84 88 87 95 108 109 105 107 113 114 106 100 99 93 87 87
161 162 160 160 158 160 160 157 158 159 159 155 151 145 142 143 146 151 152 150 145 143 146 150 154 155 159 160 159 158 158 161 161 164 162 159 155 151 147 142 141 133 133 130 123 118 115 120 119 123 135 150 165 177 178 173 172 171 172 183 201 209 195 167 141 127 111 90 76 76 83 85 93 109 125 130 128 138 137 118 106 100 100 97 91
164 161 159 160 159 159 158 155 157 156 156 152 148 143 142 147 150 153 150 148 146 145 150 152 155 157 160 160 160 160 162 167 167 167 161 158 154 151 151 149 154 150 148 145 138 133 130 138 140 133 135 149 162 176 182 178 177 176 172 184 202 201 193 176 152 138 114 93 80 74 79 83 87 102 152 183 183 185 199 167 126 106 106 108 101
161 161 161 162 160 159 157 154 156 154 154 150 144 142 145 152 154 156 153 153 153 151 154 156 159 160 162 163 163 164 166 170 169 168 164 161 158 158 163 163 166 162 159 158 159 157 147 147 152 147 137 151 163 173 182 182 181 180 175 184 200 195 184 173 158 147 123 102 84 73 72 73 84 106 180 209 209 214 223 202 180 141 119 116 115
161 166 166 165 162 160 158 154 155 154 152 147 141 142 148 154 155 158 159 160 159 157 160 162 164 164 167 169 169 170 170 173 170 170 171 168 170 174 177 176 174 171 167 162 164 172 160 150 149 158 147 151 167 174 182 184 184 182 176 184 196 189 176 169 160 154 135 114 89 75 68 64 66 81 221 223 222 234 231 215 214 188 156 131 130
163 169 167 166 165 163 161 156 156 156 154 149 144 144 149 157 158 162 165 164 163 163 167 167 168 169 172 174 175 177 175 176 174 176 182 184 189 191 191 191 187 179 167 157 168 178 163 159 152 161 160 154 167 175 181 184 185 183 177 184 195 186 173 171 165 163 148 127 102 82 72 61 53 38 250 226 222 232 219 215 226 203 190 169 147
166 169 168 168 167 167 166 161 160 160 161 156 149 148 153 160 162 168 170 170 168 168 170 170 172 173 177 180 182 185 183 183 183 184 190 198 205 204 201 200 195 187 169 159 173 172 151 168 182 175 168 157 162 173 179 183 186 186 181 184 195 188 176 177 171 170 162 142 116 92 76 58 36 7 260 220 214 223 218 219 224 207 197 189 180
169 168 169 172 171 169 171 168 165 167 170 165 158 155 158 166 171 177 179 180 176 172 174 176 177 178 181 187 191 195 195 191 190 190 194 205 210 209 206 203 197 194 190 190 178 171 170 182 191 181 170 157 156 167 173 178 184 188 187 186 194 191 181 181 180 180 175 161 131 110 80 46 19 347 271 225 212 216 218 223 219 210 203 197 196
169 168 169 172 171 169 174 176 175 177 178 175 168 164 166 173 182 189 192 194 192 184 183 187 188 188 189 192 197 202 205 200 199 203 206 212 215 214 211 213 206 205 222 216 190 177 178 183 183 176 169 157 152 162 168 170 179 188 193 193 195 194 188 183 182 190 188 177 147 139 237 349 2 343 262 233 219 213 214 220 215 209 210 206 208
166 167 170 169 167 169 177 184 187 187 186 184 179 176 177 182 194 202 207 209 211 208 203 205 205 204 202 202 204 206 211 208 209 216 217 217 219 223 222 220 214 214 224 221 208 190 177 177 176 172 168 162 154 156 162 165 173 184 192 196 199 199 198 191 181 191 193 180 158 169 253 297 327 336 240 231 225 217 213 214 208 206 211 208 210
167 166 170 168 167 171 180 190 195 194 193 193 192 192 190 194 204 211 218 218 222 227 225 225 226 224 220 218 216 216 220 219 221 227 227 223 221 226 226 221 215 216 221 222 220 208 185 180 179 177 171 165 158 153 158 163 170 177 186 195 200 204 207 206 198 196 193 182 171 192 277 302 315 323 249 230 229 223 216 214 206 203 208 206 208
169 166 171 170 167 175 183 192 198 199 199 199 202 205 203 205 210 216 223 225 229 235 238 239 240 239 233 231 228 229 228 228 234 236 233 228 224 225 224 221 217 219 223 223 220 214 195 185 183 180 174 170 164 159 160 163 169 175 182 191 197 204 210 213 210 205 201 200 194 203 291 308 328 335 289 240 230 223 217 220 212 205 210 210 209
166 160 171 172 167 176 184 189 195 200 202 203 207 209 211 212 213 218 225 230 234 238 244 245 246 246 243 240 235 236 234 232 236 237 235 230 226 225 224 223 223 225 227 228 218 206 190 181 180 179 177 177 174 169 168 170 173 176 180 187 191 195 201 206 206 205 208 219 223 228 271 271 349 353 311 258 238 225 216 221 219 212 215 216 216
163 156 161 164 161 167 178 185 190 196 202 206 209 208 212 213 210 213 221 230 234 238 243 243 245 247 247 244 237 240 241 235 234 237 240 231 223 223 223 222 225 229 232 233 221 204 188 179 180 180 179 180 181 180 178 180 181 180 182 187 190 189 193 201 201 202 208 226 239 244 255 247 329 356 319 266 249 235 221 224 224 219 221 221 222
168 157 144 146 150 162 177 183 186 194 202 206 207 205 206 208 205 207 214 223 229 235 240 239 241 243 243 243 239 241 238 232 233 240 242 227 221 225 224 221 223 229 235 235 227 214 199 194 193 186 185 183 185 191 191 191 190 189 192 195 200 197 195 204 206 196 193 212 239 246 251 237 200 186 336 285 261 245 230 230 231 226 227 227 226
169 160 148 151 160 176 180 177 184 193 198 200 200 199 200 201 202 207 213 217 222 231 236 236 238 237 239 239 238 236 231 230 235 242 239 225 226 234 230 226 227 230 236 237 235 229 214 208 205 195 196 196 197 201 201 199 198 201 202 203 209 206 202 214 223 203 186 189 214 232 232 210 198 200 66 11 308 258 236 232 232 234 235 235 233
170 167 161 167 174 179 175 171 183 188 190 191 191 192 192 195 200 207 212 213 218 227 230 230 232 235 239 239 236 233 233 237 239 242 236 229 234 242 237 232 236 240 245 247 244 242 232 221 214 208 209 209 210 214 211 205 207 217 217 217 224 220 213 221 231 219 204 195 199 212 204 185 189 198 162 82 8 326 259 233 225 234 241 241 241
178 173 167 172 172 170 166 169 178 181 183 185 187 189 188 193 200 205 211 215 220 224 224 227 231 235 238 239 239 236 238 240 241 243 237 235 241 241 238 236 244 252 253 255 254 251 243 232 223 218 214 209 215 222 220 217 221 229 230 231 236 233 226 226 229 224 215 211 213 213 198 183 172 158 131 123 89 15 318 241 221 229 243 246 246
180 173 168 169 167 164 163 168 174 178 183 185 189 190 189 194 200 205 211 216 219 220 222 230 234 234 234 237 243 242 242 242 243 246 237 239 244 242 244 242 245 252 256 257 258 255 243 236 231 225 219 214 219 228 228 228 232 236 236 236 240 242 235 232 234 233 227 223 227 223 205 194 187 169 117 105 106 80 65 221 217 226 237 244 244
177 173 171 168 168 168 167 170 176 182 184 186 191 193 193 195 197 200 202 203 205 210 219 224 225 227 229 234 243 246 246 246 247 242 234 239 245 245 249 246 245 250 255 257 259 258 250 246 241 233 227 222 225 233 235 233 234 238 239 238 243 249 246 238 238 242 239 229 228 231 218 207 206 209 208 137 116 114 128 155 189 209 215 234 246
178 178 175 173 175 173 169 171 179 183 184 189 192 193 192 187 190 192 191 194 194 200 204 204 210 217 223 226 234 244 244 241 243 239 233 237 243 246 247 245 244 244 245 247 251 254 255 254 249 243 238 232 227 230 236 235 232 235 239 241 245 251 256 251 246 245 240 231 229 231 227 221 220 225 230 218 175 144 138 161 169 175 185 215 257
181 180 182 186 182 174 170 173 182 186 188 193 192 191 189 186 193 194 190 195 194 194 192 191 202 210 219 227 227 235 236 232 234 234 231 232 237 238 238 238 237 237 237 238 242 246 254 257 254 250 248 244 231 226 233 233 230 233 236 240 244 247 253 257 255 247 238 233 232 232 232 228 228 233 236 233 219 198 194 180 174 180 186 183 248
184 179 191 197 187 177 175 175 182 189 192 196 196 193 193 196 199 197 192 191 189 188 185 189 200 209 214 216 224 235 234 225 224 224 224 226 231 231 231 232 234 239 240 238 238 241 248 252 252 251 250 248 238 228 231 233 231 234 235 238 243 245 246 253 257 250 243 241 240 240 240 234 233 236 234 235 231 220 217 205 197 193 188 182 204
195 188 194 198 194 188 180 180 189 194 195 200 203 200 200 205 204 201 196 188 183 181 178 183 189 192 192 188 215 243 236 210 204 202 209 218 226 232 232 233 237 241 241 239 238 238 242 245 248 249 249 249 242 233 232 233 232 234 238 238 241 247 246 246 251 248 246 246 243 240 239 238 238 233 227 229 229 224 220 217 219 208 192 187 198
209 202 196 196 203 199 184 186 197 200 203 207 210 207 206 208 208 210 205 192 186 182 176 170 161 151 151 204 234 240 243 191 159 173 187 196 202 210 220 226 233 237 238 238 238 237 239 241 244 247 248 247 241 234 230 232 232 231 235 238 241 247 245 240 242 242 239 238 238 236 231 231 234 231 227 229 228 225 221 220 226 222 207 201 200
213 211 202 198 204 201 187 189 197 202 210 212 211 211 213 215 217 219 217 209 202 201 190 170 157 127 42 339 256 235 234 213 183 178 183 183 184 193 208 228 234 234 235 237 234 232 232 234 238 243 247 246 241 234 227 228 233 231 232 239 244 243 235 231 234 236 234 228 225 223 215 214 221 225 227 230 229 226 222 221 225 227 225 221 221
208 212 207 200 202 199 190 193 200 205 211 213 212 215 221 227 230 223 218 217 211 212 218 195 178 12 2 352 286 231 229 217 204 209 217 211 210 233 243 226 224 223 227 230 230 227 224 226 231 236 243 244 241 238 229 226 232 234 235 242 248 241 231 231 236 241 242 235 229 223 217 219 223 222 221 221 224 226 224 223 226 227 228 229 235
205 210 208 203 201 196 194 199 206 210 210 211 214 219 223 226 228 218 211 215 209 199 213 240 274 334 328 307 226 218 230 230 208 196 215 222 223 273 72 191 207 216 224 229 233 231 224 223 226 230 237 239 237 237 231 226 231 236 240 245 250 247 237 234 240 246 248 245 243 239 233 232 233 232 230 227 229 232 229 228 231 233 233 231 234
205 209 206 202 200 197 198 204 211 213 211 212 217 223 222 215 212 208 210 220 213 199 209 242 269 293 287 223 186 185 206 234 211 183 205 230 236 165 145 191 221 243 247 249 243 231 225 225 227 228 231 230 227 230 229 223 227 232 236 241 244 244 238 232 237 244 245 242 242 243 240 237 240 247 248 245 247 247 240 232 230 235 240 240 240
207 207 203 200 199 200 204 209 213 212 210 214 218 219 213 202 198 198 206 216 209 204 216 235 249 255 226 189 178 175 171 196 217 228 242 255 267 267 234 224 250 271 252 255 249 202 197 246 257 252 243 234 223 224 226 218 220 223 225 230 231 232 234 233 233 237 241 238 234 235 238 242 247 251 250 249 251 250 244 235 228 231 239 243 245
207 204 200 200 203 208 212 214 213 208 208 212 212 210 206 198 194 195 201 207 203 205 224 239 231 208 193 187 181 169 176 205 219 243 259 270 280 290 299 273 260 260 229 255 275 259 47 23 353 330 293 255 230 223 220 211 213 216 219 225 227 230 235 238 232 224 228 233 230 225 223 229 236 238 236 238 242 240 236 229 223 228 232 237 245
205 201 200 203 208 213 216 213 206 202 203 204 203 202 202 200 197 202 205 202 197 195 207 221 209 186 181 182 177 169 182 216 237 254 264 272 281 293 308 306 274 248 234 259 280 287 307 333 352 7 22 2 241 223 207 199 206 212 218 224 231 235 237 238 227 215 211 217 225 224 218 219 226 233 235 238 244 245 241 236 233 234 230 229 237
205 201 202 206 210 214 214 206 197 195 196 197 198 199 201 199 197 204 209 201 198 192 191 195 190 184 180 176 177 183 195 219 242 257 260 258 273 295 306 313 301 280 268 269 275 283 294 303 314 360 30 33 37 78 161 193 207 214 218 223 231 234 235 241 230 219 222 200 192 201 205 209 215 229 238 247 259 260 251 250 255 261 258 252 251
206 206 207 208 212 213 205 195 190 190 191 194 195 197 201 201 202 207 207 200 196 195 192 186 181 181 178 174 184 199 210 225 240 250 249 245 268 302 328 1 10 7 352 322 300 294 298 307 307 315 359 32 60 62 64 66 160 211 215 220 231 236 239 245 238 225 229 219 187 173 161 156 158 177 207 217 228 240 247 253 259 258 258 259 260
208 209 209 212 212 206 195 188 187 188 190 194 196 198 200 204 210 212 212 206 194 190 189 182 177 178 173 167 174 189 199 207 209 191 169 154 127 99 79 61 54 60 64 62 54 40 28 29 29 9 20 68 89 83 74 59 60 93 181 210 229 246 252 251 242 234 234 235 211 178 161 149 145 150 176 192 197 206 231 249 247 241 243 250 257
211 212 213 212 203 191 184 181 185 191 193 196 199 201 203 209 216 219 222 218 199 189 187 177 171 173 170 162 162 173 180 179 165 144 135 128 119 109 94 82 71 65 67 69 69 64 57 54 53 49 52 58 59 53 35 35 103 193 224 253 284 312 333 340 287 238 231 227 206 180 171 157 149 144 146 164 173 187 219 238 244 245 249 254 260